This is the latest recevied weather packets stored in our database for station/object G4KVI. If no packets are shown the sender has not sent any weather packets the latest 10 day(s).
| Time | Temp. | Humidity | Pressure | Rain* | Wind** | Luminosity | Snow |
|---|---|---|---|---|---|---|---|
| 1788000906 | 17.78° C | 93% | 1003.4 hPa | 1.27 mm | - | 185 W/m² | - |
| 1788000606 | 18.33° C | 94% | 1003.3 hPa | 1.02 mm | - | 192 W/m² | - |
| 1788000306 | 18.33° C | 94% | 1003 hPa | 0.51 mm | - | 132 W/m² | - |
| 1788000006 | 18.33° C | 94% | 1003.5 hPa | 0.25 mm | - | 113 W/m² | - |
| 1787999706 | 17.78° C | 94% | 1003.4 hPa | 0.25 mm | - | 84 W/m² | - |
| 1787999406 | 17.78° C | 94% | 1003.3 hPa | 0.25 mm | - | 80 W/m² | - |
| 1787999106 | 17.78° C | 94% | 1003.4 hPa | 0.25 mm | - | 102 W/m² | - |
| 1787998806 | 17.78° C | 94% | 1003.5 hPa | 0 mm | - | 111 W/m² | - |
| 1787998506 | 17.78° C | 94% | 1003.5 hPa | 0 mm | - | 125 W/m² | - |
| 1787998206 | 17.78° C | 94% | 1003.7 hPa | 0 mm | - | 292 W/m² | - |
| 1787997906 | 17.78° C | 94% | 1003.6 hPa | 0.25 mm | - | 175 W/m² | - |
| 1787997606 | 17.78° C | 93% | 1003.6 hPa | 0.25 mm | - | 168 W/m² | - |
| 1787997306 | 17.78° C | 93% | 1003.6 hPa | 0.25 mm | - | 155 W/m² | - |
| 1787997006 | 17.78° C | 93% | 1003.7 hPa | 0.25 mm | - | 173 W/m² | - |
| 1787996706 | 17.78° C | 93% | 1003.7 hPa | 0.25 mm | - | 319 W/m² | - |
| 1787996406 | 17.22° C | 93% | 1004 hPa | 0.25 mm | - | 261 W/m² | - |
| 1787996106 | 17.22° C | 93% | 1003.9 hPa | 0.25 mm | - | 196 W/m² | - |
| 1787995806 | 17.22° C | 93% | 1004.3 hPa | 0.51 mm | - | 205 W/m² | - |
| 1787995506 | 16.67° C | 93% | 1004.2 hPa | 0.51 mm | - | 150 W/m² | - |
| 1787995206 | 16.67° C | 93% | 1004.1 hPa | 0.51 mm | - | 157 W/m² | - |
| 1787994906 | 16.67° C | 93% | 1004.1 hPa | 0.51 mm | - | 154 W/m² | - |
| 1787994606 | 16.67° C | 93% | 1004.4 hPa | 0.51 mm | - | 123 W/m² | - |
| 1787994305 | 16.67° C | 93% | 1004 hPa | 0.25 mm | - | 87 W/m² | - |
| 1787994006 | 16.67° C | 93% | 1004.3 hPa | 0.25 mm | - | 65 W/m² | - |
| 1787993706 | 16.67° C | 93% | 1004.8 hPa | 0.25 mm | - | 67 W/m² | - |
* Rain latest hour (hover to see other rain measurements)
** Current wind speed in m/s (hover to see current wind gust speed)